Regional Weather Roundup
Issued by NWS

Home | Current Version | Previous Version | Text Only | Print | Product List | Glossary On
Versions: 1 2 3 4 5 6 7 8 9 10 11 12 13 14 15 16 17 18 19 20 21 22 23 24 25 26 27 28 29 30 31 32 33 34 35 36 37 38 39 40 41 42 43 44 45 46 47 48 49 50
809
ASUS43 KMKX 281300
RWRWI

WISCONSIN REGIONAL WEATHER ROUNDUP
NATIONAL WEATHER SERVICE MILWAUKEE/SULLIVAN WI
800 AM CDT WED JUN 28 2017

NOTE: "FAIR" INDICATES FEW OR NO CLOUDS BELOW 12,000 FEET WITH NO
SIGNIFICANT WEATHER AND/OR OBSTRUCTIONS TO VISIBILITY.

WIZ001-002-006>008-014>016-023>028-281400-
NORTHWEST WISCONSIN

CITY           SKY/WX    TMP DP  RH WIND       PRES   REMARKS
SUPERIOR ARPT  NOT AVBL
ASHLAND        CLOUDY    60  51  72 S3        29.73F
HAYWARD        CLOUDY    60  49  66 VRB3      29.71F
SIREN          CLOUDY    62  50  63 SE6       29.65F
CUMBERLAND     CLOUDY    57  46  67 SE10      29.68F
RICE LAKE      CLOUDY    61  50  66 SE13      29.70F
CHETEK         CLOUDY    60  51  72 SE9G17    29.71F
LADYSMITH      CLOUDY    62  51  66 SE8       29.76F
EAU CLAIRE     NOT AVBL
MENOMONIE      DRIZZLE   60  56  85 SE10      29.70S
NEW RICHMOND   LGT RAIN  60  58  92 SE8       29.66F
OSCEOLA        CLOUDY    60  60 100 SE10      29.67S
$$

WIZ003>005-009-010-017-018-281400-
NORTH CENTRAL WISCONSIN

CITY           SKY/WX    TMP DP  RH WIND       PRES   REMARKS
MANITOWISH WTR CLOUDY    60  51  73 SE9       29.79F
ARBOR VITAE    CLOUDY    62  51  67 S7        29.79F
WOODRUFF       CLOUDY    62  51  67 S7        29.79F
RHINELANDER    CLOUDY    60  50  69 S8G17     29.82F
EAGLE RIVER    CLOUDY    56  47  69 SE5       29.82F
LAND O LAKES   CLOUDY    60  49  66 S6        29.84F
PHILLIPS       CLOUDY    59  50  73 S7        29.78R
TOMAHAWK       NOT AVBL
MEDFORD        CLOUDY    57  50  77 S17G24    29.80R
MERRILL        CLOUDY    58  50  76 SE5       29.82F
$$

WIZ029-030-035-036-043>047-281400-
CENTRAL WISCONSIN

CITY           SKY/WX    TMP DP  RH WIND       PRES   REMARKS
WAUSAU           N/A    N/A N/A N/A MISG      29.82S
MOSINEE        CLOUDY    61  52  72 S9        29.84S
MARSHFIELD     LGT RAIN  57  52  83 SE6       29.82R
STEVENS POINT  CLOUDY    60  48  64 S14G20    29.84S
WAUPACA        PTSUNNY   62  53  71 SE7       29.87S
WAUTOMA        CLOUDY    61  52  72 S7        29.86
WISC RAPIDS    TSTM      59  55  87 S8        29.84S
CAMP DOUGLAS   NOT AVBL
$$

WIZ011>013-019>022-031-037>040-048>050-281400-
NORTHEAST WISCONSIN

CITY           SKY/WX    TMP DP  RH WIND       PRES   REMARKS
ANTIGO         CLOUDY    55  49  81 S9        29.87R
SHAWANO        CLOUDY    63  52  67 S5        29.88R
OCONTO         CLOUDY    63  52  66 S7        29.89R
STURGEON BAY     N/A     63  50  62 S17       29.92R
GREEN BAY      CLOUDY    63  53  70 S10       29.90R
MANITOWOC      NOT AVBL
APPLETON       PTSUNNY   66  46  48 S13       29.97R
CLINTONVILLE   CLOUDY    61  50  67 S7        29.87F
OSHKOSH        CLOUDY    64  51  62 S15       29.88S
$$

WIZ032>034-041-042-053>061-281400-
SOUTHWEST WISCONSIN

CITY           SKY/WX    TMP DP  RH WIND       PRES   REMARKS
LA CROSSE      LGT RAIN  67  63  87 S20       29.73F
SPARTA         LGT RAIN  64  55  72 S9G20     29.82R
VIROQUA        CLOUDY    60  60 100 S13       29.85R
BOSCOBEL       RAIN      64  62  93 VRB3      29.85F FOG
PRAIRIE DU CHI LGT RAIN  62  60  93 E6        29.84F
PLATTEVILLE    CLOUDY    61  61 100 S9        29.91R
$$

WIZ056-057-062-063-064-067-068-281400-
SOUTH CENTRAL WISCONSIN

CITY           SKY/WX    TMP DP  RH WIND       PRES   REMARKS
REEDSBURG      RAIN      62  56  81 S9        29.86R
BARABOO/DELLS  LGT RAIN  60  53  79 SW10      29.87R
LONE ROCK      RAIN      62  58  86 SW8       29.89R FOG
MINERAL POINT  HVY RAIN  61  59  94 S9        29.91R
MADISON        CLOUDY    64  53  67 S10       29.89S
MIDDLETON      CLOUDY    64  53  67 S10       29.89S
WATERTOWN      NOT AVBL
MONROE         CLOUDY    63  54  72 S17G23    29.91R
JANESVILLE     CLOUDY    66  52  59 S13       29.92R
$$

WIZ051-052-058>065-066-070>072-281400-
SOUTHEAST WISCONSIN

CITY           SKY/WX    TMP DP  RH WIND       PRES   REMARKS
MILWAUKEE      CLOUDY    66  51  58 S12       29.96R
WAUKESHA       MOSUNNY   61  48  63 S10       29.96R
MILWAUKEE/TIMM SUNNY     63  46  55 S12G20    29.96R
RACINE         CLOUDY    64  49  57 S9        29.99R
KENOSHA        CLOUDY    63  50  62 S10       29.98R
FOND DU LAC    CLOUDY    65  49  56 S14       29.90R
SHEBOYGAN      MOSUNNY   63  52  67 S10       29.93S
WEST BEND      CLOUDY    61  50  67 S10       29.93F
JUNEAU         CLOUDY    60  50  67 SE13      29.92S
$$

LSZ147-162-281400-
LAKE SUPERIOR

STATION/POSITION TIME  TEMP    WIND        PRES    WAVE
                       AIR SEA DIR/SP/G            HT/PER
                 (UTC) (F)     (DEG/KT/KT) (MB)    (FT/S)
W MID LAKE BUOY  1150   46 39  150/ 10/ 12 1008.0F   1
DEVILS ISLAND    1200   60     160/  7/  8 1007.0F
SAXON HARBOR     1230   65     190/  7/ 12 1006.1F
$$

LMZ867-665-643>646-281400-
LAKE MICHIGAN

STATION/POSITION TIME  TEMP    WIND        PRES    WAVE
                       AIR SEA DIR/SP/G            HT/PER
                 (UTC) (F)     (DEG/KT/KT) (MB)    (FT/S)
CHAMBERS ISLAND  1240   67     150/  5/ 11 1011.9F
S GREEN BAY BUOY 1230   65     180/ 16/ 17 1011.5F
N MID LAKE BUOY  1150   57 56  180/ 10/ 12 1014.4F   3/ 5
NORTHPORT PIER   1240   65     150/  6/  9 1012.9F
KEWAUNEE LAKESHO 1230   52     180/  9/ 10 1012.8R
SHEBOYGAN LAKESH 1200   57     180/ 16/ 17 1013.3F
PORT WASHINGTON  1240   58     190/  3/  7 1014.9R
ATWATER BUOY     1109   59 55  170/ 10/ 12 1014.0F
MILWAUKEE LAKESH 1230   63     180/ 13/ 15   N/A
S MID LAKE BUOY  1150   63 61  180/ 16/ 21 1015.1F   2/ 4
KENOSHA   LAKESH 1200   61     180/ 12/ 16 1014.6
$$

TC  - TEMPERATURE IN CELSIUS
VSB - VISIBILITY IN STATUTE MILES
WCI - WIND CHILL INDEX
HX  - HEAT INDEX





USA.gov is the U.S. government's official web portal to all federal, state and local government web resources and services.